Torrington, WY

7:27 PM MST on February 18, 2018 (GMT -0700)
Torrington Municipal

Weather History for KTOR - January, 2013

Change the Weather History Date:

Sunday, January 13, 2013

  Actual Average Record
Temperature  
Mean Temperature 7 °F 28 °F  
Max Temperature 15 °F 42 °F 58 °F (2003)
Min Temperature -1 °F 15 °F -10 °F (2007)
Degree Days  
Heating Degree Days 58 37  
Month to date heating degree days 519 485  
Since 1 July heating degree days 3001 3241  
Cooling Degree Days 0 0  
Month to date cooling degree days 0 0  
Year to date cooling degree days 0 0  
Moisture  
Dew Point 0 °F    
Average Humidity 70    
Maximum Humidity 87    
Minimum Humidity 53    
Precipitation  
Precipitation T in 0.01 in 0.06 in (2007)
Month to date precipitation 0.02 0.11  
Year to date precipitation 0.02 0.11  
Sea Level Pressure  
Sea Level Pressure 30.29 in    
Wind  
Wind Speed 5 mph (NW)    
Max Wind Speed 16 mph    
Max Gust Speed 18 mph    
Visibility 10 miles    
Events      
T = Trace of Precipitation, MM = Missing Value Source: NWS Daily Summary

Daily Weather History Graph

Daily Weather History Graph

Search for Another Location

Airport or City:

Trip Planner

Search our weather history database for the weather conditions in past years. The results will help you decide how hot, cold, wet, or windy it might be!

Date:

Astronomy

Jan. 13, 2013 Rise Set
Actual Time 7:23 AM MST 4:48 PM MST
Civil Twilight 6:52 AM MST 5:19 PM MST
Nautical Twilight 6:17 AM MST 5:53 PM MST
Astronomical Twilight 5:43 AM MST 6:27 PM MST
Moon 8:20 AM MST (1/13) 7:32 PM MST (1/13)
Length of Visible Light 10h 27m
Length of Day
9h 25m
Waxing Crescent, 5% of the Moon is Illuminated
Jan 13
Waxing Crescent
Jan 18
First Quarter
Jan 26
Full
Feb 3
Last Quarter
Feb 10
New

Hourly Weather History & Observations

Time (MST) Temp. Windchill Dew Point Humidity Pressure Visibility Wind Dir Wind Speed Gust Speed Precip Events Conditions
12:53 AM 3.9 °F -5.3 °F 1.0 °F 88% 30.26 in 10.0 mi WNW 4.6 mph - 0.00 in   Mostly Cloudy
1:53 AM 3.0 °F -6.4 °F -0.0 °F 87% 30.27 in 10.0 mi WNW 4.6 mph - 0.00 in   Clear
2:53 AM 3.0 °F -6.4 °F -0.0 °F 87% 30.27 in 10.0 mi WNW 4.6 mph - 0.00 in   Clear
3:53 AM 3.0 °F -4.4 °F -0.0 °F 87% 30.25 in 10.0 mi NW 3.5 mph - N/A   Mostly Cloudy
4:53 AM 1.0 °F -11.7 °F -2.0 °F 87% 30.26 in 10.0 mi WNW 6.9 mph - N/A   Scattered Clouds
5:53 AM 1.0 °F -10.3 °F -2.0 °F 87% 30.28 in 10.0 mi WNW 5.8 mph - N/A   Clear
6:53 AM -0.0 °F -11.6 °F -4.0 °F 83% 30.30 in 10.0 mi West 5.8 mph - N/A   Clear
7:53 AM 1.0 °F -8.7 °F -2.9 °F 83% 30.32 in 10.0 mi West 4.6 mph - N/A   Clear
8:53 AM 3.9 °F -3.4 °F -0.0 °F 84% 30.33 in 10.0 mi West 3.5 mph - N/A   Clear
9:53 AM 8.1 °F -3.2 °F 1.0 °F 73% 30.33 in 10.0 mi WNW 6.9 mph - N/A   Clear
10:53 AM 10.9 °F -0.8 °F 1.9 °F 67% 30.31 in 10.0 mi WNW 8.1 mph - N/A   Clear
11:53 AM 12.9 °F 0.7 °F 3.0 °F 65% 30.27 in 10.0 mi WNW 9.2 mph - N/A   Clear
12:53 PM 15.1 °F 3.3 °F 3.0 °F 59% 30.26 in 10.0 mi NW 9.2 mph - N/A   Clear
1:53 PM 15.1 °F 4.2 °F 1.9 °F 56% 30.27 in 10.0 mi NNW 8.1 mph - N/A   Partly Cloudy
2:17 PM 14.0 °F 2.0 °F 1.4 °F 57% 30.07 in 10.0 mi NNW 9.2 mph - N/A   Mostly Cloudy
2:53 PM 12.9 °F 0.7 °F 1.9 °F 62% 30.31 in 10.0 mi NW 9.2 mph - N/A   Overcast
3:19 PM 14.0 °F 2.0 °F 3.2 °F 62% 30.09 in 10.0 mi North 9.2 mph - N/A   Mostly Cloudy
3:53 PM 12.0 °F 4.1 °F 1.0 °F 61% 30.32 in 10.0 mi NNW 4.6 mph - N/A   Clear
4:53 PM 7.0 °F -3.3 °F -0.9 °F 70% 30.34 in 10.0 mi NNW 5.8 mph - N/A   Clear
5:53 PM 9.0 °F -3.2 °F -0.9 °F 64% 30.35 in 10.0 mi NW 8.1 mph - N/A   Overcast
6:53 PM 7.0 °F -4.5 °F -2.0 °F 67% 30.36 in 10.0 mi NNW 6.9 mph - N/A   Overcast
7:53 PM 5.0 °F - -2.0 °F 73% 30.37 in 10.0 mi Calm Calm - N/A   Scattered Clouds
8:53 PM 3.9 °F -5.3 °F -0.9 °F 80% 30.37 in 10.0 mi WSW 4.6 mph - N/A   Clear
9:53 PM 3.9 °F - -2.0 °F 76% 30.36 in 10.0 mi Calm Calm - N/A   Overcast
11:53 PM -0.0 °F -9.9 °F -6.0 °F 76% 30.36 in 10.0 mi WSW 4.6 mph - N/A   Clear